Year,Month,Day,Hour,Minute,Value (Times are PST for temperature in C)
2015,06,29,00,00,20.90
2015,06,29,00,01,20.90
2015,06,29,00,02,20.90
2015,06,29,00,03,20.90
2015,06,29,00,04,20.90
2015,06,29,00,05,20.90
2015,06,29,00,06,20.80
2015,06,29,00,07,20.80
2015,06,29,00,08,20.80
2015,06,29,00,09,20.70
2015,06,29,00,10,20.70
2015,06,29,00,11,20.70
2015,06,29,00,12,20.70
2015,06,29,00,13,20.60
2015,06,29,00,14,20.60
2015,06,29,00,15,20.50
2015,06,29,00,16,20.50
2015,06,29,00,17,20.40
2015,06,29,00,18,20.40
2015,06,29,00,19,20.40
2015,06,29,00,20,20.40
2015,06,29,00,21,20.40
2015,06,29,00,22,20.40
2015,06,29,00,23,20.40
2015,06,29,00,24,20.40
2015,06,29,00,25,20.40
2015,06,29,00,26,20.40
2015,06,29,00,27,20.40
2015,06,29,00,28,20.40
2015,06,29,00,29,20.40
2015,06,29,00,30,20.40
2015,06,29,00,31,20.40
2015,06,29,00,32,20.40
2015,06,29,00,33,20.50
2015,06,29,00,34,20.50
2015,06,29,00,35,20.60
2015,06,29,00,36,20.60
2015,06,29,00,37,20.60
2015,06,29,00,38,20.60
2015,06,29,00,39,20.70
2015,06,29,00,40,20.70
2015,06,29,00,41,20.80
2015,06,29,00,42,20.80
2015,06,29,00,43,20.90
2015,06,29,00,44,20.90
2015,06,29,00,45,20.90
2015,06,29,00,46,21.00
2015,06,29,00,47,21.10
2015,06,29,00,48,21.10
2015,06,29,00,49,21.10
2015,06,29,00,50,21.20
2015,06,29,00,51,21.20
2015,06,29,00,52,21.20
2015,06,29,00,53,21.20
2015,06,29,00,54,21.30
2015,06,29,00,55,21.30
2015,06,29,00,56,21.30
2015,06,29,00,57,21.30
2015,06,29,00,58,21.20
2015,06,29,00,59,21.20
2015,06,29,01,00,21.20
2015,06,29,01,01,21.20
2015,06,29,01,02,21.20
2015,06,29,01,03,21.10
2015,06,29,01,04,21.10
2015,06,29,01,05,21.00
2015,06,29,01,06,20.90
2015,06,29,01,07,20.90
2015,06,29,01,08,20.90
2015,06,29,01,09,20.80
2015,06,29,01,10,20.80
2015,06,29,01,11,20.80
2015,06,29,01,12,20.70
2015,06,29,01,13,20.70
2015,06,29,01,14,20.70
2015,06,29,01,15,20.70
2015,06,29,01,16,20.60
2015,06,29,01,17,20.60
2015,06,29,01,18,20.60
2015,06,29,01,19,20.50
2015,06,29,01,20,20.50
2015,06,29,01,21,20.40
2015,06,29,01,22,20.40
2015,06,29,01,23,20.40
2015,06,29,01,24,20.40
2015,06,29,01,25,20.40
2015,06,29,01,26,20.40
2015,06,29,01,27,20.40
2015,06,29,01,28,20.40
2015,06,29,01,29,20.50
2015,06,29,01,30,20.50
2015,06,29,01,31,20.50
2015,06,29,01,32,20.50
2015,06,29,01,33,20.50
2015,06,29,01,34,20.50
2015,06,29,01,35,20.50
2015,06,29,01,36,20.50
2015,06,29,01,37,20.40
2015,06,29,01,38,20.40
2015,06,29,01,39,20.30
2015,06,29,01,40,20.30
2015,06,29,01,41,20.30
2015,06,29,01,42,20.20
2015,06,29,01,43,20.20
2015,06,29,01,44,20.20
2015,06,29,01,45,20.20
2015,06,29,01,46,20.20
2015,06,29,01,47,20.20
2015,06,29,01,48,20.20
2015,06,29,01,49,20.20
2015,06,29,01,50,20.20
2015,06,29,01,51,20.20
2015,06,29,01,52,20.20
2015,06,29,01,53,20.10
2015,06,29,01,54,20.10
2015,06,29,01,55,20.10
2015,06,29,01,56,20.10
2015,06,29,01,57,20.10
2015,06,29,01,58,20.10
2015,06,29,01,59,20.10
2015,06,29,02,00,20.00
2015,06,29,02,01,20.00
2015,06,29,02,02,20.00
2015,06,29,02,03,20.00
2015,06,29,02,04,20.00
2015,06,29,02,05,20.10
2015,06,29,02,06,20.10
2015,06,29,02,07,20.00
2015,06,29,02,08,20.00
2015,06,29,02,09,20.00
2015,06,29,02,10,19.90
2015,06,29,02,11,19.90
2015,06,29,02,12,19.90
2015,06,29,02,13,19.90
2015,06,29,02,14,19.90
2015,06,29,02,15,19.90
2015,06,29,02,16,19.90
2015,06,29,02,17,19.90
2015,06,29,02,18,19.90
2015,06,29,02,19,19.90
2015,06,29,02,20,19.90
2015,06,29,02,21,19.90
2015,06,29,02,22,19.90
2015,06,29,02,23,19.90
2015,06,29,02,24,19.90
2015,06,29,02,25,19.90
2015,06,29,02,26,19.90
2015,06,29,02,27,19.90
2015,06,29,02,28,19.80
2015,06,29,02,29,19.80
2015,06,29,02,30,19.80
2015,06,29,02,31,19.80
2015,06,29,02,32,19.80
2015,06,29,02,33,19.80
2015,06,29,02,34,19.80
2015,06,29,02,35,19.70
2015,06,29,02,36,19.70
2015,06,29,02,37,19.70
2015,06,29,02,38,19.70
2015,06,29,02,39,19.60
2015,06,29,02,40,19.60
2015,06,29,02,41,19.60
2015,06,29,02,42,19.60
2015,06,29,02,43,19.60
2015,06,29,02,44,19.60
2015,06,29,02,45,19.60
2015,06,29,02,46,19.60
2015,06,29,02,47,19.60
2015,06,29,02,48,19.60
2015,06,29,02,49,19.60
2015,06,29,02,50,19.50
2015,06,29,02,51,19.50
2015,06,29,02,52,19.50
2015,06,29,02,53,19.50
2015,06,29,02,54,19.40
2015,06,29,02,55,19.40
2015,06,29,02,56,19.40
2015,06,29,02,57,19.40
2015,06,29,02,58,19.40
2015,06,29,02,59,19.40
2015,06,29,03,00,19.40
2015,06,29,03,01,19.40
2015,06,29,03,02,19.40
2015,06,29,03,03,19.40
2015,06,29,03,04,19.40
2015,06,29,03,05,19.40
2015,06,29,03,06,19.40
2015,06,29,03,07,19.30
2015,06,29,03,08,19.30
2015,06,29,03,09,19.30
2015,06,29,03,10,19.20
2015,06,29,03,11,19.20
2015,06,29,03,12,19.10
2015,06,29,03,13,19.10
2015,06,29,03,14,19.10
2015,06,29,03,15,19.10
2015,06,29,03,16,19.00
2015,06,29,03,17,19.00
2015,06,29,03,18,19.00
2015,06,29,03,19,18.90
2015,06,29,03,20,18.90
2015,06,29,03,21,18.90
2015,06,29,03,22,18.90
2015,06,29,03,23,18.90
2015,06,29,03,24,18.90
2015,06,29,03,25,18.90
2015,06,29,03,26,18.90
2015,06,29,03,27,19.00
2015,06,29,03,28,18.90
2015,06,29,03,29,18.90
2015,06,29,03,30,18.90
2015,06,29,03,31,18.90
2015,06,29,03,32,18.90
2015,06,29,03,33,18.80
2015,06,29,03,34,18.80
2015,06,29,03,35,18.80
2015,06,29,03,36,18.80
2015,06,29,03,37,18.80
2015,06,29,03,38,18.70
2015,06,29,03,39,18.70
2015,06,29,03,40,18.70
2015,06,29,03,41,18.70
2015,06,29,03,42,18.70
2015,06,29,03,43,18.70
2015,06,29,03,44,18.70
2015,06,29,03,45,18.70
2015,06,29,03,46,18.60
2015,06,29,03,47,18.60
2015,06,29,03,48,18.60
2015,06,29,03,49,18.60
2015,06,29,03,50,18.60
2015,06,29,03,51,18.60
2015,06,29,03,52,18.50
2015,06,29,03,53,18.50
2015,06,29,03,54,18.50
2015,06,29,03,55,18.50
2015,06,29,03,56,18.50
2015,06,29,03,57,18.40
2015,06,29,03,58,18.40
2015,06,29,03,59,18.40
2015,06,29,04,00,18.40
2015,06,29,04,01,18.40
2015,06,29,04,02,18.40
2015,06,29,04,03,18.40
2015,06,29,04,04,18.40
2015,06,29,04,05,18.40
2015,06,29,04,06,18.40
2015,06,29,04,07,18.40
2015,06,29,04,08,18.40
2015,06,29,04,09,18.40
2015,06,29,04,10,18.30
2015,06,29,04,11,18.30
2015,06,29,04,12,18.30
2015,06,29,04,13,18.30
2015,06,29,04,14,18.30
2015,06,29,04,15,18.30
2015,06,29,04,16,18.30
2015,06,29,04,17,18.30
2015,06,29,04,18,18.30
2015,06,29,04,19,18.30
2015,06,29,04,20,18.30
2015,06,29,04,21,18.20
2015,06,29,04,22,18.20
2015,06,29,04,23,18.20
2015,06,29,04,24,18.20
2015,06,29,04,25,18.10
2015,06,29,04,26,18.10
2015,06,29,04,27,18.10
2015,06,29,04,28,18.00
2015,06,29,04,29,18.00
2015,06,29,04,30,18.00
2015,06,29,04,31,18.00
2015,06,29,04,32,18.00
2015,06,29,04,33,18.00
2015,06,29,04,34,18.00
2015,06,29,04,35,18.00
2015,06,29,04,36,18.00
2015,06,29,04,37,18.00
2015,06,29,04,38,18.10
2015,06,29,04,39,18.00
2015,06,29,04,40,18.10
2015,06,29,04,41,18.10
2015,06,29,04,42,18.10
2015,06,29,04,43,18.10
2015,06,29,04,44,18.10
2015,06,29,04,45,18.10
2015,06,29,04,46,18.10
2015,06,29,04,47,18.10
2015,06,29,04,48,18.10
2015,06,29,04,49,18.10
2015,06,29,04,50,18.10
2015,06,29,04,51,18.10
2015,06,29,04,52,18.00
2015,06,29,04,53,18.00
2015,06,29,04,54,18.00
2015,06,29,04,55,18.00
2015,06,29,04,56,18.00
2015,06,29,04,57,18.00
2015,06,29,04,58,18.00
2015,06,29,04,59,18.00
2015,06,29,05,00,17.90
2015,06,29,05,01,17.90
2015,06,29,05,02,17.90
2015,06,29,05,03,17.90
2015,06,29,05,04,17.90
2015,06,29,05,05,17.90
2015,06,29,05,06,17.90
2015,06,29,05,07,17.90
2015,06,29,05,08,17.90
2015,06,29,05,09,17.90
2015,06,29,05,10,17.90
2015,06,29,05,11,17.90
2015,06,29,05,12,17.80
2015,06,29,05,13,17.80
2015,06,29,05,14,17.90
2015,06,29,05,15,17.90
2015,06,29,05,16,18.00
2015,06,29,05,17,18.00
2015,06,29,05,18,18.10
2015,06,29,05,19,18.10
2015,06,29,05,20,18.10
2015,06,29,05,21,18.20
2015,06,29,05,22,18.20
2015,06,29,05,23,18.20
2015,06,29,05,24,18.20
2015,06,29,05,25,18.20
2015,06,29,05,26,18.20
2015,06,29,05,27,18.20
2015,06,29,05,28,18.20
2015,06,29,05,29,18.20
2015,06,29,05,30,18.20
2015,06,29,05,31,18.20
2015,06,29,05,32,18.20
2015,06,29,05,33,18.20
2015,06,29,05,34,18.20
2015,06,29,05,35,18.20
2015,06,29,05,36,18.10
2015,06,29,05,37,18.10
2015,06,29,05,38,18.10
2015,06,29,05,39,18.10
2015,06,29,05,40,18.20
2015,06,29,05,41,18.20
2015,06,29,05,42,18.20
2015,06,29,05,43,18.20
2015,06,29,05,44,18.30
2015,06,29,05,45,18.30
2015,06,29,05,46,18.30
2015,06,29,05,47,18.30
2015,06,29,05,48,18.30
2015,06,29,05,49,18.30
2015,06,29,05,50,18.30
2015,06,29,05,51,18.30
2015,06,29,05,52,18.30
2015,06,29,05,53,18.30
2015,06,29,05,54,18.30
2015,06,29,05,55,18.30
2015,06,29,05,56,18.30
2015,06,29,05,57,18.30
2015,06,29,05,58,18.30
2015,06,29,05,59,18.30
2015,06,29,06,00,18.40
2015,06,29,06,01,18.40
2015,06,29,06,02,18.40
2015,06,29,06,03,18.50
2015,06,29,06,04,18.50
2015,06,29,06,05,18.60
2015,06,29,06,06,18.60
2015,06,29,06,07,18.60
2015,06,29,06,08,18.70
2015,06,29,06,09,18.70
2015,06,29,06,10,18.70
2015,06,29,06,11,18.70
2015,06,29,06,12,18.70
2015,06,29,06,13,18.70
2015,06,29,06,14,18.70
2015,06,29,06,15,18.70
2015,06,29,06,16,18.60
2015,06,29,06,17,18.60
2015,06,29,06,18,18.50
2015,06,29,06,19,18.50
2015,06,29,06,20,18.40
2015,06,29,06,21,18.40
2015,06,29,06,22,18.40
2015,06,29,06,23,18.40
2015,06,29,06,24,18.40
2015,06,29,06,25,18.30
2015,06,29,06,26,18.30
2015,06,29,06,27,18.30
2015,06,29,06,28,18.30
2015,06,29,06,29,18.30
2015,06,29,06,30,18.30
2015,06,29,06,31,18.30
2015,06,29,06,32,18.30
2015,06,29,06,33,18.30
2015,06,29,06,34,18.30
2015,06,29,06,35,18.30
2015,06,29,06,36,18.30
2015,06,29,06,37,18.30
2015,06,29,06,38,18.30
2015,06,29,06,39,18.20
2015,06,29,06,40,18.20
2015,06,29,06,41,18.20
2015,06,29,06,42,18.20
2015,06,29,06,43,18.20
2015,06,29,06,44,18.20
2015,06,29,06,45,18.20
2015,06,29,06,46,18.30
2015,06,29,06,47,18.30
2015,06,29,06,48,18.30
2015,06,29,06,49,18.30
2015,06,29,06,50,18.30
2015,06,29,06,51,18.40
2015,06,29,06,52,18.40
2015,06,29,06,53,18.50
2015,06,29,06,54,18.50
2015,06,29,06,55,18.60
2015,06,29,06,56,18.70
2015,06,29,06,57,18.70
2015,06,29,06,58,18.80
2015,06,29,06,59,18.80
2015,06,29,07,00,18.80
2015,06,29,07,01,18.90
2015,06,29,07,02,18.90
2015,06,29,07,03,18.90
2015,06,29,07,04,18.90
2015,06,29,07,05,18.90
2015,06,29,07,06,18.90
2015,06,29,07,07,18.90
2015,06,29,07,08,18.90
2015,06,29,07,09,18.90
2015,06,29,07,10,18.90
2015,06,29,07,11,18.90
2015,06,29,07,12,18.90
2015,06,29,07,13,18.90
2015,06,29,07,14,18.90
2015,06,29,07,15,18.90
2015,06,29,07,16,18.90
2015,06,29,07,17,18.90
2015,06,29,07,18,18.90
2015,06,29,07,19,18.90
2015,06,29,07,20,18.90
2015,06,29,07,21,18.90
2015,06,29,07,22,18.90
2015,06,29,07,23,18.90
2015,06,29,07,24,19.00
2015,06,29,07,25,19.00
2015,06,29,07,26,19.10
2015,06,29,07,27,19.10
2015,06,29,07,28,19.10
2015,06,29,07,29,19.20
2015,06,29,07,30,19.20
2015,06,29,07,31,19.30
2015,06,29,07,32,19.30
2015,06,29,07,33,19.30
2015,06,29,07,34,19.40
2015,06,29,07,35,19.40
2015,06,29,07,36,19.40
2015,06,29,07,37,19.50
2015,06,29,07,38,19.50
2015,06,29,07,39,19.60
2015,06,29,07,40,19.70
2015,06,29,07,41,19.70
2015,06,29,07,42,19.80
2015,06,29,07,43,19.80
2015,06,29,07,44,19.90
2015,06,29,07,45,19.90
2015,06,29,07,46,20.00
2015,06,29,07,47,20.10
2015,06,29,07,48,20.20
2015,06,29,07,49,20.30
2015,06,29,07,50,20.30
2015,06,29,07,51,20.40
2015,06,29,07,52,20.40
2015,06,29,07,53,20.40
2015,06,29,07,54,20.50
2015,06,29,07,55,20.50
2015,06,29,07,56,20.50
2015,06,29,07,57,20.60
2015,06,29,07,58,20.60
2015,06,29,07,59,20.60
2015,06,29,08,00,20.60
2015,06,29,08,01,20.60
2015,06,29,08,02,20.60
2015,06,29,08,03,20.60
2015,06,29,08,04,20.60
2015,06,29,08,05,20.70
2015,06,29,08,06,20.70
2015,06,29,08,07,20.70
2015,06,29,08,08,20.70
2015,06,29,08,09,20.70
2015,06,29,08,10,20.70
2015,06,29,08,11,20.70
2015,06,29,08,12,20.70
2015,06,29,08,13,20.70
2015,06,29,08,14,20.70
2015,06,29,08,15,20.80
2015,06,29,08,16,20.80
2015,06,29,08,17,20.90
2015,06,29,08,18,21.00
2015,06,29,08,19,21.00
2015,06,29,08,20,21.10
2015,06,29,08,21,21.10
2015,06,29,08,22,21.20
2015,06,29,08,23,21.30
2015,06,29,08,24,21.30
2015,06,29,08,25,21.40
2015,06,29,08,26,21.50
2015,06,29,08,27,21.60
2015,06,29,08,28,21.60
2015,06,29,08,29,21.70
2015,06,29,08,30,21.70
2015,06,29,08,31,21.80
2015,06,29,08,32,21.80
2015,06,29,08,33,21.90
2015,06,29,08,34,22.00
2015,06,29,08,35,22.00
2015,06,29,08,36,22.00
2015,06,29,08,37,22.10
2015,06,29,08,38,22.10
2015,06,29,08,39,22.10
2015,06,29,08,40,22.10
2015,06,29,08,41,22.10
2015,06,29,08,42,22.20
2015,06,29,08,43,22.20
2015,06,29,08,44,22.10
2015,06,29,08,45,22.10
2015,06,29,08,46,22.10
2015,06,29,08,47,22.10
2015,06,29,08,48,22.10
2015,06,29,08,49,22.20
2015,06,29,08,50,22.20
2015,06,29,08,51,22.20
2015,06,29,08,52,22.30
2015,06,29,08,53,22.30
2015,06,29,08,54,22.40
2015,06,29,08,55,22.50
2015,06,29,08,56,22.60
2015,06,29,08,57,22.70
2015,06,29,08,58,22.80
2015,06,29,08,59,22.90
2015,06,29,09,00,23.00
2015,06,29,09,01,23.10
2015,06,29,09,02,23.20
2015,06,29,09,03,23.30
2015,06,29,09,04,23.30
2015,06,29,09,05,23.40
2015,06,29,09,06,23.50
2015,06,29,09,07,23.50
2015,06,29,09,08,23.60
2015,06,29,09,09,23.60
2015,06,29,09,10,23.70
2015,06,29,09,11,23.70
2015,06,29,09,12,23.70
2015,06,29,09,13,23.80
2015,06,29,09,14,23.80
2015,06,29,09,15,23.80
2015,06,29,09,16,23.90
2015,06,29,09,17,23.90
2015,06,29,09,18,24.00
2015,06,29,09,19,24.10
2015,06,29,09,20,24.10
2015,06,29,09,21,24.20
2015,06,29,09,22,24.20
2015,06,29,09,23,24.30
2015,06,29,09,24,24.30
2015,06,29,09,25,24.30
2015,06,29,09,26,24.30
2015,06,29,09,27,24.40
2015,06,29,09,28,24.40
2015,06,29,09,29,24.50
2015,06,29,09,30,24.50
2015,06,29,09,31,24.50
2015,06,29,09,32,24.60
2015,06,29,09,33,24.60
2015,06,29,09,34,24.60
2015,06,29,09,35,24.60
2015,06,29,09,36,24.60
2015,06,29,09,37,24.60
2015,06,29,09,38,24.70
2015,06,29,09,39,24.70
2015,06,29,09,40,24.70
2015,06,29,09,41,24.80
2015,06,29,09,42,24.90
2015,06,29,09,43,25.00
2015,06,29,09,44,25.10
2015,06,29,09,45,25.30
2015,06,29,09,46,25.40
2015,06,29,09,47,25.50
2015,06,29,09,48,25.60
2015,06,29,09,49,25.70
2015,06,29,09,50,25.70
2015,06,29,09,51,25.80
2015,06,29,09,52,25.90
2015,06,29,09,53,26.00
2015,06,29,09,54,26.10
2015,06,29,09,55,26.20
2015,06,29,09,56,26.20
2015,06,29,09,57,26.20
2015,06,29,09,58,26.10
2015,06,29,09,59,26.00
2015,06,29,10,00,25.80
2015,06,29,10,01,25.70
2015,06,29,10,02,25.70
2015,06,29,10,03,25.70
2015,06,29,10,04,25.70
2015,06,29,10,05,25.70
2015,06,29,10,06,25.70
2015,06,29,10,07,25.70
2015,06,29,10,08,25.70
2015,06,29,10,09,25.70
2015,06,29,10,10,25.80
2015,06,29,10,11,25.80
2015,06,29,10,12,25.80
2015,06,29,10,13,25.80
2015,06,29,10,14,25.80
2015,06,29,10,15,25.80
2015,06,29,10,16,25.80
2015,06,29,10,17,25.80
2015,06,29,10,18,25.80
2015,06,29,10,19,25.80
2015,06,29,10,20,25.80
2015,06,29,10,21,25.80
2015,06,29,10,22,25.90
2015,06,29,10,23,26.00
2015,06,29,10,24,26.10
2015,06,29,10,25,26.20
2015,06,29,10,26,26.30
2015,06,29,10,27,26.40
2015,06,29,10,28,26.40
2015,06,29,10,29,26.40
2015,06,29,10,30,26.40
2015,06,29,10,31,26.50
2015,06,29,10,32,26.50
2015,06,29,10,33,26.60
2015,06,29,10,34,26.60
2015,06,29,10,35,26.60
2015,06,29,10,36,26.60
2015,06,29,10,37,26.70
2015,06,29,10,38,26.80
2015,06,29,10,39,26.80
2015,06,29,10,40,26.90
2015,06,29,10,41,26.90
2015,06,29,10,42,26.90
2015,06,29,10,43,26.90
2015,06,29,10,44,26.90
2015,06,29,10,45,26.90
2015,06,29,10,46,27.00
2015,06,29,10,47,27.00
2015,06,29,10,48,27.00
2015,06,29,10,49,27.00
2015,06,29,10,50,27.10
2015,06,29,10,51,27.10
2015,06,29,10,52,27.20
2015,06,29,10,53,27.30
2015,06,29,10,54,27.30
2015,06,29,10,55,27.30
2015,06,29,10,56,27.30
2015,06,29,10,57,27.20
2015,06,29,10,58,27.20
2015,06,29,10,59,27.10
2015,06,29,11,00,27.10
2015,06,29,11,01,27.10
2015,06,29,11,02,27.20
2015,06,29,11,03,27.20
2015,06,29,11,04,27.20
2015,06,29,11,05,27.20
2015,06,29,11,06,27.20
2015,06,29,11,07,27.20
2015,06,29,11,08,27.10
2015,06,29,11,09,27.20
2015,06,29,11,10,27.10
2015,06,29,11,11,27.20
2015,06,29,11,12,27.20
2015,06,29,11,13,27.30
2015,06,29,11,14,27.30
2015,06,29,11,15,27.40
2015,06,29,11,16,27.50
2015,06,29,11,17,27.60
2015,06,29,11,18,27.70
2015,06,29,11,19,27.80
2015,06,29,11,20,27.80
2015,06,29,11,21,27.80
2015,06,29,11,22,27.80
2015,06,29,11,23,27.80
2015,06,29,11,24,27.90
2015,06,29,11,25,27.90
2015,06,29,11,26,27.90
2015,06,29,11,27,27.90
2015,06,29,11,28,27.90
2015,06,29,11,29,27.90
2015,06,29,11,30,28.00
2015,06,29,11,31,28.00
2015,06,29,11,32,28.10
2015,06,29,11,33,28.20
2015,06,29,11,34,28.30
2015,06,29,11,35,28.40
2015,06,29,11,36,28.40
2015,06,29,11,37,28.40
2015,06,29,11,38,28.40
2015,06,29,11,39,28.30
2015,06,29,11,40,28.10
2015,06,29,11,41,28.10
2015,06,29,11,42,28.10
2015,06,29,11,43,28.10
2015,06,29,11,44,28.00
2015,06,29,11,45,28.00
2015,06,29,11,46,27.90
2015,06,29,11,47,27.80
2015,06,29,11,48,27.80
2015,06,29,11,49,27.80
2015,06,29,11,50,27.80
2015,06,29,11,51,27.80
2015,06,29,11,52,27.80
2015,06,29,11,53,27.80
2015,06,29,11,54,27.80
2015,06,29,11,55,28.00
2015,06,29,11,56,28.10
2015,06,29,11,57,28.10
2015,06,29,11,58,28.20
2015,06,29,11,59,28.30
2015,06,29,12,00,28.30
2015,06,29,12,01,28.30
2015,06,29,12,02,28.30
2015,06,29,12,03,28.30
2015,06,29,12,04,28.30
2015,06,29,12,05,28.30
2015,06,29,12,06,28.40
2015,06,29,12,07,28.50
2015,06,29,12,08,28.60
2015,06,29,12,09,28.60
2015,06,29,12,10,28.50
2015,06,29,12,11,28.40
2015,06,29,12,12,28.40
2015,06,29,12,13,28.40
2015,06,29,12,14,28.40
2015,06,29,12,15,28.50
2015,06,29,12,16,28.50
2015,06,29,12,17,28.40
2015,06,29,12,18,28.40
2015,06,29,12,19,28.30
2015,06,29,12,20,28.30
2015,06,29,12,21,28.30
2015,06,29,12,22,28.40
2015,06,29,12,23,28.50
2015,06,29,12,24,28.60
2015,06,29,12,25,28.70
2015,06,29,12,26,28.80
2015,06,29,12,27,28.90
2015,06,29,12,28,28.90
2015,06,29,12,29,28.90
2015,06,29,12,30,28.90
2015,06,29,12,31,28.90
2015,06,29,12,32,28.90
2015,06,29,12,33,28.90
2015,06,29,12,34,28.90
2015,06,29,12,35,29.00
2015,06,29,12,36,29.10
2015,06,29,12,37,29.10
2015,06,29,12,38,29.20
2015,06,29,12,39,29.20
2015,06,29,12,40,29.30
2015,06,29,12,41,29.40
2015,06,29,12,42,29.30
2015,06,29,12,43,29.20
2015,06,29,12,44,29.20
2015,06,29,12,45,29.20
2015,06,29,12,46,29.20
2015,06,29,12,47,29.30
2015,06,29,12,48,29.30
2015,06,29,12,49,29.30
2015,06,29,12,50,29.30
2015,06,29,12,51,29.40
2015,06,29,12,52,29.40
2015,06,29,12,53,29.40
2015,06,29,12,54,29.30
2015,06,29,12,55,29.30
2015,06,29,12,56,29.30
2015,06,29,12,57,29.20
2015,06,29,12,58,29.10
2015,06,29,12,59,29.10
2015,06,29,13,00,29.10
2015,06,29,13,01,29.10
2015,06,29,13,02,29.00
2015,06,29,13,03,29.00
2015,06,29,13,04,29.10
2015,06,29,13,05,29.20
2015,06,29,13,06,29.20
2015,06,29,13,07,29.20
2015,06,29,13,08,29.30
2015,06,29,13,09,29.30
2015,06,29,13,10,29.20
2015,06,29,13,11,29.00
2015,06,29,13,12,28.90
2015,06,29,13,13,28.80
2015,06,29,13,14,28.70
2015,06,29,13,15,28.60
2015,06,29,13,16,28.70
2015,06,29,13,17,28.70
2015,06,29,13,18,28.80
2015,06,29,13,19,28.80
2015,06,29,13,20,28.80
2015,06,29,13,21,28.80
2015,06,29,13,22,28.70
2015,06,29,13,23,28.70
2015,06,29,13,24,28.80
2015,06,29,13,25,28.70
2015,06,29,13,26,28.70
2015,06,29,13,27,28.60
2015,06,29,13,28,28.70
2015,06,29,13,29,28.70
2015,06,29,13,30,28.80
2015,06,29,13,31,28.80
2015,06,29,13,32,28.80
2015,06,29,13,33,28.80
2015,06,29,13,34,28.80
2015,06,29,13,35,28.90
2015,06,29,13,36,29.00
2015,06,29,13,37,29.10
2015,06,29,13,38,29.30
2015,06,29,13,39,29.40
2015,06,29,13,40,29.40
2015,06,29,13,41,29.40
2015,06,29,13,42,29.50
2015,06,29,13,43,29.60
2015,06,29,13,44,29.60
2015,06,29,13,45,29.60
2015,06,29,13,46,29.70
2015,06,29,13,47,29.70
2015,06,29,13,48,29.60
2015,06,29,13,49,29.60
2015,06,29,13,50,29.50
2015,06,29,13,51,29.40
2015,06,29,13,52,29.30
2015,06,29,13,53,29.30
2015,06,29,13,54,29.40
2015,06,29,13,55,29.60
2015,06,29,13,56,29.70
2015,06,29,13,57,29.80
2015,06,29,13,58,29.70
2015,06,29,13,59,29.60
2015,06,29,14,00,29.50
2015,06,29,14,01,29.40
2015,06,29,14,02,29.30
2015,06,29,14,03,29.30
2015,06,29,14,04,29.30
2015,06,29,14,05,29.40
2015,06,29,14,06,29.50
2015,06,29,14,07,29.50
2015,06,29,14,08,29.30
2015,06,29,14,09,29.20
2015,06,29,14,10,28.90
2015,06,29,14,11,28.80
2015,06,29,14,12,28.80
2015,06,29,14,13,28.70
2015,06,29,14,14,28.70
2015,06,29,14,15,28.70
2015,06,29,14,16,28.70
2015,06,29,14,17,28.80
2015,06,29,14,18,29.00
2015,06,29,14,19,29.00
2015,06,29,14,20,29.20
2015,06,29,14,21,29.30
2015,06,29,14,22,29.30
2015,06,29,14,23,29.30
2015,06,29,14,24,29.10
2015,06,29,14,25,29.00
2015,06,29,14,26,28.80
2015,06,29,14,27,28.80
2015,06,29,14,28,28.70
2015,06,29,14,29,28.70
2015,06,29,14,30,28.70
2015,06,29,14,31,28.60
2015,06,29,14,32,28.60
2015,06,29,14,33,28.60
2015,06,29,14,34,28.60
2015,06,29,14,35,28.60
2015,06,29,14,36,28.60
2015,06,29,14,37,28.70
2015,06,29,14,38,28.90
2015,06,29,14,39,29.00
2015,06,29,14,40,29.10
2015,06,29,14,41,29.00
2015,06,29,14,42,28.90
2015,06,29,14,43,29.00
2015,06,29,14,44,28.90
2015,06,29,14,45,28.90
2015,06,29,14,46,29.00
2015,06,29,14,47,29.10
2015,06,29,14,48,29.10
2015,06,29,14,49,29.10
2015,06,29,14,50,29.10
2015,06,29,14,51,29.20
2015,06,29,14,52,29.20
2015,06,29,14,53,29.20
2015,06,29,14,54,29.30
2015,06,29,14,55,29.30
2015,06,29,14,56,29.30
2015,06,29,14,57,29.30
2015,06,29,14,58,29.30
2015,06,29,14,59,29.30
2015,06,29,15,00,29.20
2015,06,29,15,01,29.30
2015,06,29,15,02,29.30
2015,06,29,15,03,29.30
2015,06,29,15,04,29.20
2015,06,29,15,05,29.10
2015,06,29,15,06,29.00
2015,06,29,15,07,28.90
2015,06,29,15,08,28.90
2015,06,29,15,09,28.90
2015,06,29,15,10,29.00
2015,06,29,15,11,29.00
2015,06,29,15,12,29.00
2015,06,29,15,13,29.00
2015,06,29,15,14,28.90
2015,06,29,15,15,28.90
2015,06,29,15,16,28.90
2015,06,29,15,17,28.90
2015,06,29,15,18,28.90
2015,06,29,15,19,29.00
2015,06,29,15,20,29.10
2015,06,29,15,21,29.20
2015,06,29,15,22,29.30
2015,06,29,15,23,29.30
2015,06,29,15,24,29.30
2015,06,29,15,25,29.30
2015,06,29,15,26,29.30
2015,06,29,15,27,29.20
2015,06,29,15,28,29.20
2015,06,29,15,29,29.10
2015,06,29,15,30,29.10
2015,06,29,15,31,29.20
2015,06,29,15,32,29.30
2015,06,29,15,33,29.30
2015,06,29,15,34,29.40
2015,06,29,15,35,29.40
2015,06,29,15,36,29.50
2015,06,29,15,37,29.50
2015,06,29,15,38,29.60
2015,06,29,15,39,29.70
2015,06,29,15,40,29.70
2015,06,29,15,41,29.70
2015,06,29,15,42,29.60
2015,06,29,15,43,29.60
2015,06,29,15,44,29.70
2015,06,29,15,45,29.70
2015,06,29,15,46,29.70
2015,06,29,15,47,29.80
2015,06,29,15,48,29.80
2015,06,29,15,49,29.80
2015,06,29,15,50,29.80
2015,06,29,15,51,29.80
2015,06,29,15,52,29.80
2015,06,29,15,53,29.90
2015,06,29,15,54,29.90
2015,06,29,15,55,30.00
2015,06,29,15,56,30.10
2015,06,29,15,57,30.10
2015,06,29,15,58,30.10
2015,06,29,15,59,30.10
2015,06,29,16,00,30.00
2015,06,29,16,01,30.00
2015,06,29,16,02,29.90
2015,06,29,16,03,30.00
2015,06,29,16,04,30.10
2015,06,29,16,05,30.10
2015,06,29,16,06,30.10
2015,06,29,16,07,30.00
2015,06,29,16,08,29.80
2015,06,29,16,09,29.70
2015,06,29,16,10,29.70
2015,06,29,16,11,29.80
2015,06,29,16,12,29.90
2015,06,29,16,13,29.80
2015,06,29,16,14,29.70
2015,06,29,16,15,29.60
2015,06,29,16,16,29.50
2015,06,29,16,17,29.40
2015,06,29,16,18,29.50
2015,06,29,16,19,29.50
2015,06,29,16,20,29.60
2015,06,29,16,21,29.60
2015,06,29,16,22,29.70
2015,06,29,16,23,29.70
2015,06,29,16,24,29.70
2015,06,29,16,25,29.70
2015,06,29,16,26,29.70
2015,06,29,16,27,29.70
2015,06,29,16,28,29.60
2015,06,29,16,29,29.70
2015,06,29,16,30,29.70
2015,06,29,16,31,29.70
2015,06,29,16,32,29.80
2015,06,29,16,33,29.80
2015,06,29,16,34,29.90
2015,06,29,16,35,29.90
2015,06,29,16,36,29.90
2015,06,29,16,37,30.00
2015,06,29,16,38,30.10
2015,06,29,16,39,30.20
2015,06,29,16,40,30.10
2015,06,29,16,41,30.00
2015,06,29,16,42,29.90
2015,06,29,16,43,29.90
2015,06,29,16,44,29.90
2015,06,29,16,45,29.80
2015,06,29,16,46,29.60
2015,06,29,16,47,29.60
2015,06,29,16,48,29.60
2015,06,29,16,49,29.60
2015,06,29,16,50,29.70
2015,06,29,16,51,29.70
2015,06,29,16,52,29.70
2015,06,29,16,53,29.70
2015,06,29,16,54,29.80
2015,06,29,16,55,29.80
2015,06,29,16,56,29.80
2015,06,29,16,57,29.70
2015,06,29,16,58,29.70
2015,06,29,16,59,29.60
2015,06,29,17,00,29.70
2015,06,29,17,01,29.70
2015,06,29,17,02,29.80
2015,06,29,17,03,29.80
2015,06,29,17,04,29.80
2015,06,29,17,05,29.80
2015,06,29,17,06,29.80
2015,06,29,17,07,29.80
2015,06,29,17,08,29.70
2015,06,29,17,09,29.70
2015,06,29,17,10,29.70
2015,06,29,17,11,29.70
2015,06,29,17,12,29.70
2015,06,29,17,13,29.70
2015,06,29,17,14,29.70
2015,06,29,17,15,29.70
2015,06,29,17,16,29.80
2015,06,29,17,17,29.80
2015,06,29,17,18,29.90
2015,06,29,17,19,30.00